Orbital Elements at Epoch 2459200.5 (2020-Dec-17.0) TDB
Reference: JPL 10 (heliocentric ecliptic J2000)
Element | Value | Uncertainty (1-sigma) | Units |
e | .508059920162646 | 1.1268e-06 | |
a | 2.052523120100625 | 4.7357e-06 | au |
q | 1.009718387570317 | 4.7763e-08 | au |
i | 5.33672324098784 | 1.1425e-05 | deg |
node | 240.4785368415402 | 9.2707e-06 | deg |
peri | 351.0272684058811 | 4.271e-05 | deg |
M | 72.45700917650451 | 0.00025869 | deg |
tp | 2458984.323532207569 (2020-May-14.82353221) | 3.5602e-05 | TDB |
period | 1074.064873636969 2.94 | 0.0037173 1.018e-05 | d yr |
n | .3351752848791877 | 1.16e-06 | deg/d |
Q | 3.095327852630934 | 7.1418e-06 | au |
|
| | Orbit Determination Parameters
Additional Information
|